Location: Croisilles
(50.1998°N, 2.8793°E)
Time: 21:03:39
(UTC+00:00)

Cosmos 2227 Rocket - Pass Details

Date: 21 January 2021
Orbit: 837 x 846 km, 71.0° (Epoch: 02 March)

Event Time Altitude Azimuth Distance (km) Brightness Sun altitude
Rises 17:48:44 0° 268° (W) 3,401 7.1 -13.3°
Reaches altitude 10° 17:52:07 10° 288° (WNW) 2,471 5.5 -13.8°
Maximum altitude 17:55:43 17° 328° (NNW) 2,030 4.4 -14.4°
Drops below altitude 10° 17:59:19 10° 8° (N) 2,480 4.4 -14.9°
Enters shadow 18:01:26 - 22° (NNE) 3,029 4.8 -15.3°
